{"data":{"norad_id":54810,"epoch":"2026-09-20T12:50:49.577856Z","epoch_age_seconds":90263,"freshness":"FRESH","line1":"1 54810U 22175BE  26263.53529604  .00002366  00000+0  83270-4 0  9998","line2":"2 54810  53.1594 217.6071 0001180 103.5132 256.6002 15.33542882209773","mean_motion":15.33542882,"eccentricity":0.000118,"inclination_deg":53.1594,"raan_deg":217.6071,"arg_perigee_deg":103.5132,"mean_anomaly_deg":256.6002,"bstar":8.327e-5,"rev_number":20977,"period_min":93.900210871312,"perigee_km":464.44444210483,"apogee_km":466.05948189987,"semimajor_km":6843.3889620023,"source":"CELESTRAK","updated_at":"2026-09-21T09:00:33.131545Z"}}